WB0RXX Weather Reports


Display with metric or nautical units.
time (UTC)temp
F
wind
direction
speed
MPH
gust
MPH
rain 1hr
in
rain 24hr
in
rain mn
in
humidity
%
barometer
mb
20260905120004 65 94 0.0 0.0 0.00 0.00 0.00 95 1015.8
20260905113004 65 42 0.0 3.0 0.00 0.00 0.00 96 1015.6
20260905112004 65 97 0.0 0.0 0.00 0.00 0.00 96 1015.6
20260905105004 66 141 0.0 0.0 0.00 0.00 0.00 96 1015.6
20260905104005 66 141 0.0 3.0 0.00 0.00 0.00 96 1015.5
20260905095003 65 153 0.0 0.0 0.00 0.00 0.00 96 1015.0
20260905090004 65 142 0.0 1.0 0.00 0.00 0.00 96 1014.7
20260905080003 66 123 0.0 0.0 0.00 0.00 0.00 95 1015.0
20260905072003 67 100 0.0 0.0 0.00 0.00 0.00 95 1015.4
20260905064005 68 28 0.0 1.0 0.00 0.00 0.00 93 1015.6
20260905063006 68 24 0.0 0.0 0.00 0.00 0.00 93 1015.5
20260905055003 70 42 0.0 0.0 0.00 0.00 0.00 92 1015.5
20260905054004 70 42 0.0 0.0 0.00 0.00 0.00 92 1015.5
20260905050005 71 82 0.0 3.0 0.00 0.00 0.00 91 1014.9
20260905042005 72 76 0.0 0.0 0.00 0.00 0.00 90 1014.6
20260905040003 73 86 0.0 0.0 0.00 0.00 0.00 89 1014.8
20260905025003 75 107 0.0 0.0 0.00 0.00 0.00 86 1014.6
20260905021005 76 92 0.0 0.0 0.00 0.00 0.00 85 1014.0
20260905020005 77 92 0.0 0.0 0.00 0.00 0.00 85 1013.6
20260905002003 82 81 0.0 0.0 0.00 0.00 0.00 77 1013.3
20260904230005 83 150 1.0 2.0 0.00 0.00 0.00 76 1013.4
20260904222006 82 41 3.0 10.0 0.00 0.00 0.00 76 1013.3
20260904220003 82 35 2.0 5.0 0.00 0.00 0.00 77 1013.3
20260904212004 82 54 2.0 6.0 0.00 0.00 0.00 77 1013.4
20260904204003 82 83 1.0 0.0 0.00 0.00 0.00 78 1013.5
20260904184005 75 42 1.0 1.0 0.00 0.00 0.00 87 1013.9
20260904183005 75 17 1.0 0.0 0.00 0.00 0.00 87 1014.0
20260904182003 76 79 2.0 7.0 0.00 0.00 0.00 86 1013.9
20260904181004 77 177 0.0 0.0 0.00 0.00 0.00 85 1013.9
20260904180005 76 173 0.0 0.0 0.00 0.00 0.00 87 1013.9
20260904174004 75 180 0.0 0.0 0.00 0.00 0.00 90 1013.8
20260904170004 73 17 3.0 4.0 0.00 0.00 0.00 95 1013.6
20260904161004 70 357 3.0 4.0 0.00 0.00 0.00 98 1013.4
20260904160004 70 5 3.0 5.0 0.00 0.00 0.00 98 1013.4
20260904153005 70 18 2.0 3.0 0.00 0.00 0.00 98 1013.0
20260904152006 70 9 0.0 0.0 0.00 0.00 0.00 98 1013.1
20260904143005 68 12 3.0 5.0 0.00 0.00 0.00 98 1012.7
20260904140004 68 348 1.0 5.0 0.00 0.00 0.00 97 1012.4
20260904135005 68 357 2.0 5.0 0.00 0.00 0.00 97 1012.4
20260904134004 68 19 1.0 3.0 0.00 0.00 0.00 97 1012.3
20260904133004 68 19 3.0 4.0 0.00 0.00 0.00 97 1012.2
20260904132004 68 344 1.0 2.0 0.00 0.00 0.00 97 1012.0
20260904131006 68 360 3.0 4.0 0.00 0.00 0.00 97 1011.8
20260904130004 68 17 4.0 4.0 0.00 0.00 0.00 97 1011.7
20260904125003 68 14 0.0 1.0 0.00 0.00 0.00 97 1011.8